Tracking 29799 objects as of 11-Oct-2024
HD Live streaming from Space Station
objects crossing your sky now

APSTAR 1

Track APSTAR 1 now!
APSTAR 1 is classified as:


NORAD ID: 23185
Int'l Code: 1994-043A
Perigee: 36,035.8 km
Apogee: 36,056.7 km
Inclination: 12.7 °
Period: 1,449.0 minutes
Semi major axis: 42417 km
RCS: 25.1188 m2 (large)
Launch date: July 21, 1994
Source: People's Republic of China (PRC)
Launch site: Xichang Space Center, China (XSC)

24 C-band transponders.
Your satellite tracking list
Your tracking list is empty




NASA's NSSDC Master Catalog

Two Line Element Set (TLE):
1 23185U 94043A   24284.64213135 -.00000282  00000-0  00000-0 0  9997
2 23185  12.6880  22.1579 0002470  90.0017 260.7192  0.99377769 38962
Source of the keplerian elements: AFSPC